Cleveland, OH

11:53 PM EDT on May 27, 2017 (GMT -0400)
Cleveland-Hopkins International

Weather History for KCLE - September, 2013

Change the Weather History Date:

Wednesday, September 4, 2013

  Actual Average Record
Temperature  
Mean Temperature 67 °F 69 °F  
Max Temperature 79 °F 78 °F 95 °F (1953)
Min Temperature 54 °F 60 °F 40 °F (1946)
Degree Days  
Heating Degree Days 0 1  
Month to date heating degree days 2 4  
Since 1 July heating degree days 9 16  
Cooling Degree Days 2 5  
Month to date cooling degree days 23 20  
Year to date cooling degree days 785 735  
Growing Degree Days 16 (Base 50)    
Moisture  
Dew Point 55 °F    
Average Humidity 64    
Maximum Humidity 86    
Minimum Humidity 42    
Precipitation  
Precipitation 0.00 in 0.11 in 1.75 in (2011)
Month to date precipitation T 0.48  
Year to date precipitation 28.21 26.02  
Snow  
Snow 0.00 in 0.00 in - ()
Month to date snowfall 0.0 0.0  
Since 1 July snowfall 0.0 0.0  
Since 1 September snowfall 0.0 0.0  
Snow Depth 0.00 in    
Sea Level Pressure  
Sea Level Pressure 30.09 in    
Wind  
Wind Speed 9 mph (SW)    
Max Wind Speed 16 mph    
Max Gust Speed 21 mph    
Visibility 10 miles    
Events      
T = Trace of Precipitation, MM = Missing Value Source: NWS Daily Summary

Daily Weather History Graph

Daily Weather History Graph

Search for Another Location

Airport or City:

Trip Planner

Search our weather history database for the weather conditions in past years. The results will help you decide how hot, cold, wet, or windy it might be!

Date:

Astronomy

Sep. 04, 2013 Rise Set
Actual Time 6:56 AM EDT 7:54 PM EDT
Civil Twilight 6:28 AM EDT 8:23 PM EDT
Nautical Twilight 5:55 AM EDT 8:56 PM EDT
Astronomical Twilight 5:19 AM EDT 9:31 PM EDT
Moon 6:07 AM EDT (9/4) 7:13 PM EDT (9/4)
Length of Visible Light 13h 54m
Length of Day
12h 58m
Waning Crescent, 1% of the Moon is Illuminated
Sep 4
Waning Crescent
Sep 5
New
Sep 12
First Quarter
Sep 19
Full
Sep 26
Last Quarter

Hourly Weather History & Observations

Time (EDT) Temp. Dew Point Humidity Pressure Visibility Wind Dir Wind Speed Gust Speed Precip Events Conditions
12:51 AM 57.0 °F 52.0 °F 83% 30.07 in 10.0 mi South 3.5 mph - N/A   Clear
1:51 AM 57.0 °F 53.1 °F 87% 30.07 in 10.0 mi SSW 4.6 mph - N/A   Clear
2:51 AM 57.0 °F 53.1 °F 87% 30.07 in 10.0 mi SSW 8.1 mph - N/A   Clear
3:51 AM 55.9 °F 52.0 °F 87% 30.07 in 10.0 mi SW 5.8 mph - N/A   Clear
4:51 AM 55.0 °F 52.0 °F 89% 30.09 in 10.0 mi SW 6.9 mph - N/A   Clear
5:51 AM 55.0 °F 51.1 °F 86% 30.10 in 10.0 mi SSW 5.8 mph - N/A   Clear
6:51 AM 55.0 °F 51.1 °F 86% 30.11 in 10.0 mi SW 5.8 mph - N/A   Clear
7:51 AM 55.9 °F 52.0 °F 87% 30.13 in 10.0 mi SW 9.2 mph - N/A   Partly Cloudy
8:51 AM 60.1 °F 54.0 °F 80% 30.13 in 10.0 mi SW 6.9 mph - N/A   Partly Cloudy
9:51 AM 64.9 °F 57.0 °F 75% 30.12 in 10.0 mi SSW 8.1 mph - N/A   Clear
10:51 AM 70.0 °F 57.0 °F 63% 30.12 in 10.0 mi West 10.4 mph - N/A   Clear
11:51 AM 73.0 °F 57.0 °F 57% 30.11 in 10.0 mi West 12.7 mph - N/A   Partly Cloudy
12:51 PM 75.0 °F 57.9 °F 55% 30.11 in 10.0 mi WSW 13.8 mph - N/A   Partly Cloudy
1:51 PM 75.9 °F 55.9 °F 50% 30.10 in 10.0 mi SW 13.8 mph - N/A   Partly Cloudy
2:51 PM 77.0 °F 55.9 °F 48% 30.09 in 10.0 mi SW 11.5 mph - N/A   Partly Cloudy
3:51 PM 79.0 °F 53.1 °F 40% 30.08 in 10.0 mi West 12.7 mph 17.3 mph N/A   Clear
4:51 PM 79.0 °F 55.0 °F 44% 30.07 in 10.0 mi West 11.5 mph - N/A   Clear
5:51 PM 78.1 °F 55.9 °F 46% 30.06 in 10.0 mi WSW 13.8 mph - N/A   Clear
6:51 PM 75.9 °F 55.9 °F 50% 30.06 in 10.0 mi WSW 9.2 mph - N/A   Partly Cloudy
7:51 PM 73.0 °F 55.9 °F 55% 30.05 in 10.0 mi SSW 6.9 mph - N/A   Partly Cloudy
8:51 PM 71.1 °F 57.0 °F 61% 30.06 in 10.0 mi SSW 6.9 mph - N/A   Partly Cloudy
9:51 PM 71.1 °F 57.0 °F 61% 30.06 in 10.0 mi SW 8.1 mph - N/A   Scattered Clouds
10:51 PM 68.0 °F 57.0 °F 68% 30.07 in 10.0 mi SW 6.9 mph - N/A   Mostly Cloudy
11:51 PM 66.9 °F 55.9 °F 68% 30.07 in 10.0 mi WSW 9.2 mph - N/A   Mostly Cloudy